Wind_Speed
46 46 46 46 46 46 46 46 47 47 48 47 48 47 47 47 47 47 47 47 47 47 48 49 49 50 50 50 50 52 53 53 52 50 50 50 50 49 48 48 47 46 46
46 46 46 46 46 46 47 47 48 48 47 47 47 47 47 47 47 47 47 47 48 48 48 48 48 49 49 50 51 52 53 52 52 51 50 49 48 46 46 46 45 45 45
46 46 46 46 46 46 47 47 47 47 46 46 46 46 47 47 47 47 48 48 48 48 48 47 48 49 50 50 51 52 53 52 51 50 48 46 45 45 45 44 44 44 44
46 46 45 45 46 46 46 47 47 46 45 45 45 46 46 46 46 47 47 48 48 48 48 47 48 49 50 51 52 53 52 51 50 48 46 45 44 44 44 43 42 42 41
45 45 45 45 45 45 46 46 46 45 45 45 45 46 46 46 46 47 47 47 48 48 48 48 48 49 50 51 51 50 49 48 47 46 45 45 44 42 41 41 40 40 39
44 44 44 45 45 44 44 45 45 45 45 45 46 46 46 46 46 47 46 47 47 47 48 48 48 49 49 49 49 47 46 45 44 44 44 43 42 41 40 39 39 39 38
44 43 43 43 43 43 43 43 44 44 45 45 46 46 46 46 46 46 46 46 46 47 47 48 48 48 47 47 46 45 44 44 44 43 42 41 40 40 39 39 38 38 37
43 42 42 42 42 42 42 42 42 43 44 45 45 45 45 46 46 46 46 46 47 47 47 47 46 46 45 44 44 43 43 43 43 42 41 40 40 39 39 38 37 37 37
42 42 43 43 43 43 42 42 42 43 43 44 44 44 44 44 45 45 46 47 47 47 46 45 45 44 44 43 42 42 41 41 41 40 40 39 39 38 38 38 38 37 35
43 43 43 44 43 43 43 43 43 43 43 43 43 44 44 44 45 45 46 46 46 45 44 44 44 44 43 42 41 41 40 40 39 39 39 39 38 38 38 38 37 36 35
42 42 43 43 43 43 43 43 43 42 42 42 42 43 44 44 44 45 44 44 44 43 42 42 42 42 41 41 41 40 39 39 38 37 37 37 37 37 36 36 35 35 34
41 42 42 43 43 43 43 42 41 41 41 41 41 42 42 42 42 42 42 42 41 41 40 40 39 39 39 38 38 38 37 36 36 35 35 35 35 35 34 32 32 31 31
40 40 41 41 41 41 40 40 40 40 40 40 41 42 41 41 40 40 40 40 40 39 38 37 37 36 36 36 36 36 35 35 34 34 34 33 33 32 31 30 29 29 28
39 39 39 39 39 39 39 39 39 40 40 40 40 40 39 38 38 38 38 38 37 36 35 35 35 35 35 34 33 33 32 32 32 31 30 30 30 29 29 28 27 26 26
38 38 38 38 38 38 38 38 39 39 39 38 38 37 36 36 36 36 36 35 34 34 34 34 34 34 33 31 30 30 30 29 29 28 28 28 28 27 26 25 24 24 24
38 37 37 37 38 38 38 38 38 37 37 36 35 35 34 34 33 33 33 33 33 34 34 34 33 32 30 29 29 28 28 27 27 27 27 26 26 24 23 22 22 22 22
37 37 36 37 37 37 37 36 36 36 35 35 34 33 32 32 32 32 32 32 33 34 34 33 31 30 29 28 28 27 26 26 25 25 25 24 23 21 21 21 21 21 21
36 36 36 35 35 35 35 35 34 33 32 32 32 32 31 30 30 31 31 31 32 33 32 31 30 29 28 28 27 26 25 25 24 23 22 21 21 20 20 20 20 19 19
35 35 34 34 33 33 33 33 33 32 31 31 31 30 30 30 30 31 31 31 31 31 30 29 29 28 28 27 26 25 24 24 22 21 21 20 20 20 20 19 19 18 18
33 33 33 32 32 32 32 32 32 32 32 31 31 30 30 30 30 30 31 31 31 31 30 29 28 28 27 26 25 24 23 22 21 20 20 20 19 19 18 18 18 18 18
31 31 30 30 31 31 31 31 31 31 30 31 30 30 29 29 29 29 29 30 30 29 29 28 27 27 27 25 24 23 22 21 20 20 19 19 19 18 18 18 18 17 17
29 30 30 30 30 29 29 29 29 29 29 29 28 27 27 27 26 27 27 28 28 27 27 26 26 25 24 23 22 21 20 20 20 19 19 18 18 18 17 17 17 17 16
27 28 28 28 28 28 28 28 28 27 27 26 26 25 25 25 25 25 24 24 24 23 23 23 23 22 22 21 20 20 19 19 19 19 18 17 16 16 16 16 15 15 14
25 25 26 26 26 26 26 25 25 25 24 24 24 24 24 24 23 22 22 22 21 20 20 20 20 20 19 19 19 19 18 18 17 16 16 15 15 14 14 14 13 13 12
23 24 25 25 24 24 23 23 23 23 23 22 22 22 22 21 21 20 19 19 18 18 17 17 16 16 16 16 16 16 15 15 14 13 13 13 13 13 12 12 11 10 10
23 22 22 22 22 22 22 21 21 21 20 20 20 20 20 19 18 18 18 17 16 16 15 15 14 14 14 14 13 13 12 11 10 10 10 10 10 10 9 9 9 8 8
Wind_Direction
255 257 258 260 261 263 265 267 269 271 272 273 274 274 274 275 276 277 278 279 280 281 283 284 286 287 288 288 289 291 293 294 294 294 294 293 293 292 293 293 294 293 293
254 256 258 260 262 264 265 267 269 271 272 272 273 274 274 275 276 276 277 279 280 281 282 283 285 287 288 288 289 291 293 293 293 294 294 293 292 292 292 293 293 293 293
255 257 259 261 263 265 266 267 268 270 271 271 273 274 275 276 276 276 277 279 281 281 282 284 285 287 288 288 289 291 292 292 293 293 293 292 292 292 292 291 292 293 295
256 258 260 262 263 265 266 268 269 269 270 272 273 274 275 276 277 277 277 278 280 281 282 285 286 288 289 289 290 291 291 291 291 291 292 291 292 292 292 292 292 293 295
256 257 259 261 264 265 267 268 269 269 270 272 273 274 276 277 278 277 278 279 281 282 283 285 287 288 290 291 290 290 291 291 291 290 291 291 292 291 292 293 293 293 294
256 258 260 262 264 265 267 268 268 268 270 272 274 275 277 278 278 278 278 280 281 283 284 285 287 288 290 290 290 290 291 291 291 291 291 291 291 291 292 293 294 294 294
255 257 260 262 264 265 266 267 268 269 271 272 274 275 276 277 278 278 279 280 281 283 285 286 287 288 289 288 288 289 290 291 291 292 292 291 291 291 291 292 293 294 295
255 257 260 262 263 264 266 267 269 271 272 273 274 275 276 277 277 277 278 280 282 284 286 287 287 288 288 288 289 289 290 291 291 290 290 291 291 291 292 292 293 293 295
254 257 259 261 263 264 265 267 270 271 272 273 274 275 277 277 278 277 279 281 282 284 285 287 287 287 288 288 289 289 289 289 289 288 289 290 291 291 292 293 293 293 293
255 258 260 262 263 264 266 268 270 271 272 273 274 275 277 278 278 279 281 282 283 283 285 286 286 287 287 288 288 288 288 288 288 288 289 290 290 291 292 293 293 292 292
257 259 260 262 263 265 267 269 271 271 272 273 275 276 277 278 279 280 282 282 283 283 285 285 285 286 287 287 287 287 287 287 287 288 289 290 290 291 292 293 292 292 291
258 260 261 261 263 264 266 268 270 271 272 273 274 276 277 278 279 279 280 282 283 284 284 285 286 288 288 287 287 287 287 287 287 288 289 290 291 292 293 293 292 292 292
259 260 261 261 263 265 266 267 269 270 271 273 275 276 276 276 276 277 279 282 283 283 283 285 286 288 288 288 288 288 287 287 288 289 290 291 291 291 291 290 291 292 295
259 260 261 261 263 265 267 268 270 271 273 274 276 276 275 275 276 277 279 281 281 281 282 284 286 288 289 290 289 289 288 288 288 288 289 290 291 291 291 291 292 293 296
262 263 263 263 264 265 268 270 271 272 274 276 276 275 275 275 276 278 279 279 279 280 282 284 285 287 288 289 289 288 288 288 288 288 289 290 291 291 292 293 294 295 296
263 263 264 265 267 268 268 269 270 271 273 274 275 276 276 276 277 278 278 278 279 280 282 283 284 285 286 287 288 288 288 289 290 290 291 292 291 290 291 294 296 297 297
262 263 264 266 267 268 268 268 269 270 272 272 273 275 276 276 276 277 278 280 280 281 282 282 282 282 283 285 286 287 288 289 290 291 292 291 290 289 291 294 296 298 299
262 263 264 265 266 266 266 267 268 268 268 270 271 273 274 276 277 278 279 280 281 281 281 281 280 281 282 283 283 285 287 288 289 290 291 291 289 288 290 293 295 298 300
261 262 264 264 265 265 265 266 267 265 265 268 270 272 274 276 277 278 279 280 281 281 282 281 279 279 280 281 282 283 285 286 287 288 289 289 288 289 291 292 295 298 301
260 262 262 263 263 264 265 266 265 265 266 267 269 271 273 275 276 278 279 281 281 280 279 278 278 277 278 279 279 281 282 283 284 285 286 286 287 288 289 292 295 297 299
259 259 260 262 263 264 265 266 266 266 267 269 270 272 274 274 275 277 280 281 281 279 277 276 276 275 275 276 277 278 279 278 281 283 284 285 285 286 289 292 293 295 297
259 259 261 262 263 263 264 264 265 266 268 269 269 271 273 274 275 278 280 281 280 279 276 274 274 273 273 275 275 275 275 276 279 282 284 284 285 286 289 292 294 294 295
260 261 261 262 263 263 263 264 265 266 267 267 268 270 272 274 275 278 280 282 281 278 276 273 272 272 272 273 273 273 274 276 278 280 281 282 283 286 290 293 294 295 296
261 261 262 262 263 263 263 263 263 265 266 267 267 269 272 273 275 277 279 281 279 277 276 274 272 272 272 272 272 272 273 275 276 277 278 279 282 285 289 291 294 296 297
261 262 262 262 261 261 261 262 263 264 265 266 266 268 270 271 273 275 277 278 276 274 274 274 274 274 274 273 273 271 271 272 274 275 277 280 283 285 288 291 294 296 297
261 262 261 260 259 259 259 260 263 264 264 264 264 266 268 270 271 273 275 274 272 270 272 275 276 276 275 274 271 268 268 270 273 277 278 281 286 290 292 293 295 297 300
Height
5678 5680 5681 5683 5683 5684 5684 5684 5684 5684 5683 5682 5681 5680 5679 5678 5677 5676 5675 5673 5672 5670 5668 5666 5664 5661 5658 5654 5651 5647 5643 5639 5636 5635 5632 5628 5623 5620 5616 5612 5609 5605 5602
5667 5669 5670 5671 5672 5672 5673 5672 5672 5671 5670 5669 5668 5668 5667 5666 5665 5663 5662 5661 5660 5658 5656 5654 5652 5649 5646 5643 5639 5636 5632 5627 5624 5622 5619 5615 5611 5607 5604 5601 5598 5595 5592
5656 5658 5659 5660 5660 5661 5661 5660 5660 5659 5658 5658 5657 5656 5655 5653 5652 5651 5650 5649 5647 5646 5644 5642 5640 5637 5634 5631 5628 5624 5620 5616 5612 5608 5606 5602 5599 5596 5593 5590 5587 5584 5581
5645 5646 5647 5648 5649 5649 5649 5649 5648 5647 5647 5646 5645 5644 5643 5641 5640 5639 5638 5637 5636 5634 5633 5631 5628 5625 5622 5619 5616 5612 5608 5604 5600 5597 5594 5591 5588 5585 5582 5579 5578 5575 5572
5634 5635 5636 5637 5637 5638 5637 5637 5636 5636 5635 5635 5634 5632 5631 5630 5628 5627 5626 5625 5624 5623 5621 5619 5616 5613 5610 5606 5603 5599 5596 5592 5589 5586 5583 5580 5578 5574 5572 5569 5567 5566 5563
5623 5625 5626 5626 5626 5626 5626 5625 5625 5624 5624 5623 5622 5621 5620 5618 5616 5615 5614 5614 5613 5611 5610 5608 5605 5602 5598 5594 5590 5587 5584 5580 5577 5575 5572 5569 5567 5564 5562 5559 5557 5556 5554
5613 5614 5615 5615 5615 5615 5615 5614 5614 5613 5613 5612 5611 5610 5608 5607 5605 5604 5603 5602 5601 5600 5598 5596 5593 5590 5586 5583 5580 5576 5573 5570 5567 5564 5561 5559 5557 5554 5552 5551 5548 5546 5544
5602 5603 5604 5604 5605 5605 5605 5604 5603 5603 5602 5601 5600 5599 5597 5596 5594 5593 5592 5592 5591 5589 5586 5584 5581 5578 5575 5572 5569 5566 5563 5560 5557 5554 5551 5549 5547 5544 5542 5540 5538 5537 5535
5591 5592 5593 5594 5594 5594 5594 5594 5593 5592 5591 5590 5589 5588 5586 5585 5583 5582 5581 5580 5579 5578 5575 5573 5570 5567 5564 5561 5558 5555 5553 5550 5546 5544 5541 5539 5537 5535 5533 5531 5529 5528 5526
5580 5581 5582 5583 5583 5583 5583 5583 5582 5581 5580 5579 5578 5577 5576 5574 5573 5571 5570 5569 5568 5567 5564 5561 5558 5555 5553 5549 5547 5545 5543 5540 5537 5535 5532 5530 5528 5525 5523 5521 5519 5518 5516
5569 5570 5571 5571 5572 5572 5572 5572 5571 5571 5570 5569 5568 5567 5565 5563 5562 5560 5558 5557 5556 5555 5553 5550 5548 5545 5542 5539 5537 5535 5533 5530 5528 5526 5524 5521 5519 5516 5514 5512 5510 5508 5507
5558 5559 5560 5560 5561 5561 5561 5561 5560 5560 5559 5558 5557 5556 5554 5552 5551 5549 5547 5546 5544 5543 5542 5540 5537 5535 5532 5530 5527 5525 5523 5521 5519 5517 5514 5512 5510 5508 5505 5503 5501 5499 5498
5547 5548 5549 5549 5549 5550 5550 5550 5550 5549 5548 5547 5546 5545 5544 5542 5540 5538 5537 5536 5534 5533 5532 5530 5528 5525 5523 5520 5518 5516 5514 5512 5510 5508 5506 5503 5501 5499 5497 5495 5493 5492 5490
5537 5537 5538 5539 5539 5539 5539 5539 5539 5538 5538 5537 5535 5534 5533 5532 5530 5528 5527 5526 5525 5523 5522 5521 5519 5517 5514 5511 5509 5507 5505 5503 5501 5499 5497 5495 5493 5491 5490 5488 5486 5485 5484
5526 5527 5527 5528 5528 5529 5529 5528 5528 5528 5527 5526 5525 5524 5523 5522 5520 5519 5517 5516 5515 5514 5513 5512 5510 5508 5506 5503 5501 5499 5497 5495 5493 5491 5490 5488 5486 5485 5483 5481 5480 5479 5477
5516 5516 5517 5518 5518 5518 5519 5519 5518 5517 5517 5516 5515 5514 5513 5512 5511 5510 5508 5507 5506 5505 5504 5502 5501 5499 5497 5495 5494 5492 5490 5488 5486 5484 5483 5481 5480 5478 5477 5476 5474 5473 5472
5505 5506 5507 5507 5508 5508 5508 5508 5508 5508 5507 5506 5506 5505 5504 5503 5502 5501 5500 5499 5497 5496 5494 5493 5492 5491 5489 5488 5487 5485 5483 5481 5480 5478 5476 5475 5474 5473 5472 5471 5469 5468 5467
5495 5495 5496 5497 5497 5498 5498 5498 5498 5498 5498 5497 5497 5496 5495 5494 5493 5492 5491 5490 5488 5487 5485 5484 5483 5483 5482 5480 5479 5478 5476 5475 5473 5472 5470 5469 5468 5467 5466 5465 5464 5463 5462
5484 5485 5486 5486 5487 5488 5488 5488 5489 5489 5489 5489 5488 5487 5486 5485 5484 5483 5482 5481 5479 5478 5476 5475 5475 5474 5474 5473 5472 5470 5469 5468 5467 5466 5465 5464 5463 5462 5461 5460 5459 5458 5457
5474 5475 5476 5477 5477 5478 5478 5479 5479 5479 5479 5480 5479 5479 5478 5477 5476 5475 5474 5472 5471 5469 5468 5467 5467 5466 5466 5465 5464 5463 5462 5462 5461 5460 5459 5459 5458 5457 5456 5455 5454 5453 5452
5465 5465 5466 5467 5468 5468 5469 5469 5469 5470 5470 5470 5470 5469 5469 5468 5468 5467 5465 5464 5462 5461 5460 5459 5459 5459 5458 5457 5457 5456 5456 5456 5455 5455 5454 5453 5452 5452 5451 5450 5449 5449 5448
5455 5456 5457 5458 5458 5459 5459 5460 5460 5461 5461 5461 5461 5460 5460 5460 5459 5458 5457 5456 5454 5453 5452 5452 5451 5451 5451 5450 5450 5450 5450 5450 5449 5449 5448 5448 5447 5447 5446 5445 5445 5444 5443
5446 5447 5448 5449 5449 5450 5450 5451 5451 5452 5452 5452 5452 5452 5452 5452 5451 5451 5450 5448 5447 5446 5445 5444 5444 5444 5444 5444 5444 5444 5444 5444 5444 5443 5443 5443 5442 5442 5441 5441 5440 5439 5438
5438 5439 5439 5440 5441 5441 5442 5442 5443 5444 5444 5444 5444 5445 5445 5444 5444 5443 5443 5442 5441 5440 5439 5439 5438 5438 5438 5438 5438 5438 5438 5438 5438 5438 5438 5438 5438 5437 5437 5436 5436 5435 5435
5430 5431 5431 5432 5433 5433 5434 5435 5435 5436 5436 5437 5437 5437 5437 5437 5437 5437 5436 5436 5435 5435 5434 5434 5433 5433 5433 5433 5433 5433 5433 5433 5433 5433 5433 5433 5433 5433 5433 5433 5432 5432 5432
5422 5423 5424 5424 5425 5426 5427 5428 5428 5429 5429 5430 5430 5431 5431 5431 5431 5431 5431 5430 5430 5430 5430 5430 5429 5429 5429 5428 5428 5429 5429 5429 5429 5429 5430 5430 5430 5430 5430 5429 5429 5429 5429